Thunder Bay, Ontario

10:18 AM EDT on August 16, 2017 (GMT -0400)
Thunder Bay

Weather History for CYQT - December, 2012

Change the Weather History Date:

Sunday, December 2, 2012

  Actual Average Record
Temperature  
Mean Temperature 36 °F -  
Max Temperature 38 °F -17 °F 39 °F (2012)
Min Temperature 33 °F -30 °F -7 °F (2011)
Degree Days  
Heating Degree Days 30    
Moisture  
Dew Point 35 °F    
Average Humidity 94    
Maximum Humidity 100    
Minimum Humidity 82    
Precipitation  
Precipitation 0.01 in 0.01 in - ()
Sea Level Pressure  
Sea Level Pressure 29.92 in    
Wind  
Wind Speed 4 mph ()    
Max Wind Speed 10 mph    
Max Gust Speed 23 mph    
Visibility 6.6 miles    
Events      
Averages and records for this station are not official NWS values.
T = Trace of Precipitation, MM = Missing Value Source: Averaged Metar Reports

Daily Weather History Graph

Daily Weather History Graph

Search for Another Location

Airport or City:

Trip Planner

Search our weather history database for the weather conditions in past years. The results will help you decide how hot, cold, wet, or windy it might be!

Date:

Astronomy

Dec. 02, 2012 Rise Set
Actual Time 8:29 AM EST 5:04 PM EST
Civil Twilight 7:53 AM EST 5:40 PM EST
Nautical Twilight 7:14 AM EST 6:19 PM EST
Astronomical Twilight 6:36 AM EST 6:57 PM EST
Moon 9:00 PM EST (12/2) 11:12 AM EST (12/2)
Length of Visible Light 9h 46m
Length of Day
8h 34m
Waning Gibbous, 86% of the Moon is Illuminated
Dec 2
Waning Gibbous
Dec 6
Last Quarter
Dec 13
New
Dec 20
First Quarter
Dec 28
Full

Hourly Weather History & Observations

Time (EST) Temp. Windchill Dew Point Humidity Pressure Visibility Wind Dir Wind Speed Gust Speed Precip Events Conditions
12:00 AM 33.8 °F 28.6 °F 33.8 °F 100% 29.80 in 2.0 mi WSW 5.8 mph - N/A   Overcast
1:00 AM 34 °F - 34 °F 100% 29.82 in 3 mi SW 3.5 mph - -   Mist
1:00 AM 33.8 °F 30.8 °F 33.8 °F 100% 29.82 in 3.0 mi SW 3.5 mph - N/A   Overcast
2:00 AM 35.6 °F 29.9 °F 33.8 °F 93% 29.83 in 4.0 mi SW 6.9 mph - N/A   Overcast
3:00 AM 33.8 °F 29.6 °F 33.8 °F 100% 29.84 in 6.0 mi SW 4.6 mph - N/A   Overcast
4:00 AM 33.8 °F 29.6 °F 33.8 °F 100% 29.85 in 6.0 mi SW 4.6 mph - N/A   Overcast
5:00 AM 33.8 °F 28.6 °F 33.8 °F 100% 29.88 in 5.0 mi SW 5.8 mph - N/A   Overcast
7:00 AM 34 °F - 34 °F 100% 29.91 in 3 mi SW 4.6 mph - -   Mist
7:00 AM 33.8 °F 30.8 °F 33.8 °F 100% 29.91 in 3.0 mi SW 3.5 mph - N/A   Overcast
8:00 AM 33.8 °F 27.7 °F 33.8 °F 100% 29.92 in 6.0 mi SW 6.9 mph - N/A   Overcast
9:00 AM 33.8 °F 28.6 °F 33.8 °F 100% 29.94 in 4.0 mi SW 5.8 mph - N/A   Overcast
10:00 AM 35.6 °F - 33.8 °F 93% 29.95 in 4.0 mi SW 2.3 mph - N/A   Mostly Cloudy
11:00 AM 35.6 °F 32.8 °F 35.6 °F 100% 29.97 in 8.0 mi West 3.5 mph - N/A   Overcast
12:00 PM 37.4 °F 33.8 °F 35.6 °F 93% 29.97 in 8.0 mi West 4.6 mph - N/A   Overcast
1:00 PM 38 °F - 35 °F 85% 29.95 in 7 mi SW 1.2 mph - -   Overcast
1:00 PM 37.4 °F - 35.6 °F 93% 29.95 in 8.0 mi Calm Calm - N/A   Overcast
2:00 PM 39.2 °F - 35.6 °F 87% 29.96 in 20.0 mi Calm Calm - N/A   Overcast
3:00 PM 37.4 °F 34.9 °F 35.6 °F 93% 29.96 in 8.0 mi East 3.5 mph - N/A   Overcast
4:00 PM 37.4 °F 32.8 °F 35.6 °F 93% 29.94 in 10.0 mi ENE 5.8 mph - N/A   Overcast
5:00 PM 37.4 °F 33.8 °F 33.8 °F 87% 29.95 in 10.0 mi South 4.6 mph - N/A   Overcast
6:00 PM 37.4 °F 33.8 °F 33.8 °F 87% 29.96 in 10.0 mi SSW 4.6 mph - N/A   Overcast
6:29 PM 37.4 °F 33.8 °F 33.8 °F 87% 29.96 in 10.0 mi SSE 4.6 mph - N/A   Overcast
7:00 PM 38 °F - 35 °F 82% 29.96 in 7 mi South 4.6 mph - -   Overcast
7:00 PM 37.4 °F 32.8 °F 35.6 °F 93% 29.96 in 8.0 mi South 5.8 mph - N/A   Overcast
8:00 PM 37.4 °F 32.8 °F 35.6 °F 93% 29.95 in 8.0 mi South 5.8 mph - N/A   Overcast
9:00 PM 37.4 °F 33.8 °F 35.6 °F 93% 29.95 in 5.0 mi South 4.6 mph - N/A   Overcast
10:00 PM 37.4 °F 30.3 °F 35.6 °F 93% 29.94 in 5.0 mi South 10.4 mph 23.0 mph N/A   Overcast
11:00 PM 37.4 °F 32.1 °F 35.6 °F 93% 29.92 in 5.0 mi South 6.9 mph - N/A   Overcast